[[{"header":{"parameterUnit":"m.s-1","parameterCategory":1,"la1":30.2991,"la2":30.254,"lo1":-89.0895,"lo2":-89.0444,"dy":0.0017,"dx":0.0017,"nx":28,"ny":28,"refTime":"2024-02-06T03:00:00:Z","depth":0,"parameterNumber":2,"parameterNumberName":"U-component_of_WINDS"},"data":[0,0,0,0,0,0,0,0,0,0,0,0,0,0,0,0,0,0,0,0,0,0,0,0,0,0,0,0,0,0,0,0,0,0,0,0,0,0,0,0,0,0,0,0,0,0,0,0,0,0,0,0,0,0,0,0,0,0,-2.1708,-2.1707,0,-2.1666,-2.1665,-2.1665,-2.1595,-2.1594,-2.1592,-2.1591,-2.1549,-2.1549,-2.1549,0,0,0,0,0,0,0,0,0,0,0,0,0,-2.173,-2.1729,-2.1708,-2.1707,-2.1707,-2.1666,-2.1665,-2.1664,-2.1595,-2.1594,-2.1592,-2.1591,-2.1549,-2.1549,-2.1549,0,0,0,0,0,0,0,0,0,0,0,0,0,-2.1707,-2.1729,-2.1708,-2.1667,-2.1663,-2.1666,-2.1665,-2.1664,-2.1596,-2.1594,-2.1592,-2.159,-2.1549,-2.1549,-2.1549,-2.1588,0,0,-2.1549,-2.1549,0,0,0,0,0,0,0,0,-2.1708,-2.1706,-2.1674,-2.167,-2.1665,-2.1634,-2.1657,-2.1639,-2.1596,-2.1621,-2.1591,-2.1589,-2.1579,-2.1576,-2.1573,-2.1586,-2.1584,-2.1549,-2.1549,-2.1549,-2.1549,0,0,0,0,0,0,0,-2.171,-2.1708,-2.1691,-2.1673,-2.1668,-2.1651,-2.1646,-2.1653,-2.1611,-2.1619,-2.1614,-2.161,-2.1576,-2.1573,-2.1571,-2.1584,-2.1549,-2.1549,-2.1549,-2.155,-2.1628,-2.163,0,0,0,0,0,0,-2.1717,-2.171,-2.1692,-2.169,-2.1683,-2.1653,-2.1647,-2.1646,-2.1611,-2.1604,-2.1611,-2.1607,-2.1573,-2.1571,-2.1569,-2.1613,-2.1549,-2.155,-2.155,-2.1626,-2.1628,-2.163,0,0,0,0,0,0,-2.1718,-2.1717,-2.1694,-2.1698,-2.1694,-2.1654,-2.1654,-2.1646,-2.1642,-2.1605,-2.1598,-2.1616,-2.1572,-2.1569,-2.1584,-2.1611,-2.155,-2.155,-2.1623,-2.1626,-2.1629,-2.1701,0,0,0,0,0,0,-2.1719,-2.1717,-2.1732,-2.1699,-2.1694,-2.171,-2.1655,-2.1646,-2.1643,-2.1636,-2.1607,-2.16,-2.157,-2.1584,-2.1584,-2.161,-2.155,-2.1621,-2.1625,-2.1628,-2.1696,-2.1706,-2.1715,0,0,0,0,0,-2.172,-2.1753,-2.1733,-2.1731,-2.1711,-2.1711,-2.1708,-2.1672,-2.1645,-2.1659,-2.1635,-2.1601,-2.1608,-2.1586,-2.1586,-2.1612,-2.1619,-2.1624,-2.1628,-2.1692,-2.1704,-2.1714,0,0,0,0,0,0,-2.179,-2.1748,-2.1725,-2.1749,-2.1734,-2.1699,-2.1716,-2.1686,-2.1679,-2.1674,-2.1629,-2.1624,-2.1644,-2.1629,-2.1606,-2.1648,-2.1608,-2.1613,-2.1657,-2.1668,-2.1677,-2.1681,-2.155,0,0,0,0,0,-2.1809,-2.1812,-2.1775,-2.18,-2.1794,-2.1756,-2.1755,-2.1729,-2.1712,-2.1705,-2.1682,-2.1668,-2.1666,-2.1666,-2.1663,-2.1693,-2.1686,-2.1711,-2.172,-2.1728,-2.1733,-2.1748,-2.1759,-2.1645,-2.1645,-2.1645,0,0,-2.1846,-2.1824,-2.1829,-2.1813,-2.1799,-2.1804,-2.1752,-2.1759,-2.1762,-2.1706,-2.1719,-2.1702,-2.1683,-2.1706,-2.1715,-2.1694,-2.1762,-2.1734,-2.174,-2.1741,-2.1754,-2.1765,-2.1774,-2.1648,-2.1648,-2.1647,0,0,-2.1918,-2.1901,-2.1919,-2.1906,-2.1885,-2.186,-2.1865,-2.1834,-2.1821,-2.1833,-2.1791,-2.1795,-2.1793,-2.1781,-2.1775,-2.1842,-2.181,-2.1842,-2.1891,-2.1906,-2.1915,-2.1923,-2.1947,-2.1956,-2.1847,-2.1847,-2.1847,0,-2.1967,-2.1972,-2.1933,-2.1943,-2.1938,-2.1887,-2.1906,-2.1895,-2.1874,-2.1872,-2.1849,-2.1846,-2.1829,-2.1849,-2.1865,-2.1862,-2.1866,-2.1845,-2.1917,-2.1924,-2.1931,-2.1954,-2.1963,-2.1851,-2.185,-2.185,-2.185,0,-2.2035,-2.2039,-2.2057,-2.2038,-2.2034,-2.2049,-2.2012,-2.2013,-2.1987,-2.1965,-2.1978,-2.1956,-2.1948,-2.195,-2.1925,-2.1967,-2.1954,-2.1925,-2.1884,-2.1946,-2.1967,-2.1975,-2.1857,-2.1855,-2.1854,-2.1853,0,0,-2.2149,-2.2108,-2.2115,-2.2106,-2.2079,-2.2082,-2.2094,-2.2085,-2.2088,-2.2075,-2.2084,-2.2084,-2.2057,-2.205,-2.2023,-2.2036,-2.2091,-2.2005,-2.2004,-2.2022,-2.2136,-2.2159,-2.2169,-2.207,-2.2072,-2.2073,-2.2138,0,-2.2215,-2.2233,-2.2198,-2.2225,-2.2229,-2.2181,-2.2192,-2.2177,-2.2157,-2.2157,-2.2134,-2.2135,-2.2099,-2.2094,-2.2106,-2.2082,-2.2114,-2.2077,-2.2079,-2.2079,-2.2086,-2.218,-2.2204,-2.2266,-2.2146,-2.2147,-2.2148,0,-2.2294,-2.2285,-2.2313,-2.2284,-2.2284,-2.2295,-2.2284,-2.2285,-2.2267,-2.2251,-2.2244,-2.2212,-2.2222,-2.2183,-2.2197,-2.2173,-2.2171,-2.216,-2.2162,-2.2161,-2.2118,-2.2182,-2.2285,-2.2295,-2.216,-2.2159,-2.2158,0,-2.2376,-2.237,-2.2386,-2.2379,-2.2347,-2.2355,-2.2342,-2.2322,-2.2319,-2.231,-2.2308,-2.23,-2.2296,-2.2291,-2.2258,-2.2233,-2.2276,-2.2234,-2.2264,-2.2265,-2.2275,-2.2275,-2.238,-2.2274,-2.2274,-2.2274,-2.2274,0,-2.2453,-2.2472,-2.2422,-2.2432,-2.2451,-2.2411,-2.2432,-2.2414,-2.2396,-2.2402,-2.236,-2.2367,-2.2323,-2.2324,-2.2299,-2.2314,-2.2313,-2.23,-2.2294,-2.2304,-2.2306,-2.2303,-2.2298,-2.2277,-2.2276,-2.2276,-2.2275,0,-2.2547,-2.2514,-2.2528,-2.2496,-2.2488,-2.2504,-2.2477,-2.2485,-2.2462,-2.2469,-2.2469,-2.2433,-2.2432,-2.2399,-2.2392,-2.2375,-2.2401,-2.2386,-2.2407,-2.2403,-2.2434,-2.2432,-2.2541,-2.2554,-2.244,-2.2441,-2.2442,0,-2.2599,-2.2612,-2.2581,-2.2582,-2.257,-2.2572,-2.2569,-2.253,-2.2528,-2.2509,-2.2519,-2.2516,-2.2511,-2.2512,-2.2486,-2.248,-2.2465,-2.2504,-2.2464,-2.2474,-2.2466,-2.2465,-2.2467,-2.2512,-2.2514,-2.2515,-2.2516,0,-2.2694,-2.2677,-2.2674,-2.2666,-2.2663,-2.2655,-2.2644,-2.2647,-2.2604,-2.2605,-2.2604,-2.26,-2.2592,-2.2589,-2.2579,-2.2565,-2.2534,-2.2528,-2.2535,-2.2546,-2.2558,-2.2552,-2.2431,-2.2526,-2.2525,-2.2524,-2.2524,-2.2523,-2.2768,-2.2778,-2.2758,-2.2756,-2.2743,-2.2734,-2.274,-2.2718,-2.2716,-2.2707,-2.2684,-2.2687,-2.2669,-2.2651,-2.2641,-2.2643,-2.2623,-2.2633,-2.2635,-2.2638,-2.2644,-2.2558,-2.2641,-2.264,-2.264,-2.264,-2.2639,0,-2.2862,-2.2846,-2.2845,-2.2831,-2.2829,-2.2799,-2.2786,-2.2787,-2.279,-2.2775,-2.2771,-2.277,-2.2767,-2.274,-2.2734,-2.2741,-2.2726,-2.2741,-2.274,-2.2737,-2.2662,-2.2657,-2.2753,-2.2753,-2.2753,-2.2753,-2.2753,-2.2753,-2.291,-2.2925,-2.2906,-2.2914,-2.2899,-2.2901,-2.2896,-2.2887,-2.2875,-2.2876,-2.2873,-2.2856,-2.2837,-2.2829,-2.2825,-2.2817,-2.2817,-2.2836,-2.2824,-2.2754,-2.2743,-2.2732,-2.2727,-2.2836,-2.2836,-2.2899,-2.2899,-2.29]},{"header":{"parameterUnit":"m.s-1","parameterCategory":1,"la1":30.2991,"la2":30.254,"lo1":-89.0895,"lo2":-89.0444,"dy":0.0017,"dx":0.0017,"nx":28,"ny":28,"refTime":"2024-02-06T03:00:00:Z","depth":0,"parameterNumber":3,"parameterNumberName":"V-component_of_WINDS"},"data":[0,0,0,0,0,0,0,0,0,0,0,0,0,0,0,0,0,0,0,0,0,0,0,0,0,0,0,0,0,0,0,0,0,0,0,0,0,0,0,0,0,0,0,0,0,0,0,0,0,0,0,0,0,0,0,0,0,0,-7.1719,-7.1719,0,-7.1736,-7.1736,-7.1737,-7.1627,-7.1624,-7.1621,-7.1618,-7.1631,-7.1634,-7.1638,0,0,0,0,0,0,0,0,0,0,0,0,0,-7.1589,-7.1592,-7.1719,-7.1719,-7.172,-7.1736,-7.1736,-7.1737,-7.1627,-7.1623,-7.162,-7.1616,-7.163,-7.1634,-7.1638,0,0,0,0,0,0,0,0,0,0,0,0,0,-7.163,-7.1593,-7.1719,-7.1667,-7.1663,-7.1736,-7.1736,-7.1737,-7.1628,-7.1623,-7.1619,-7.1614,-7.1629,-7.1634,-7.1638,-7.1761,0,0,-7.1653,-7.1655,0,0,0,0,0,0,0,0,-7.1628,-7.1635,-7.1675,-7.1671,-7.1666,-7.1675,-7.1695,-7.1745,-7.1629,-7.1641,-7.1618,-7.1612,-7.1649,-7.1652,-7.1665,-7.1762,-7.1762,-7.1654,-7.1657,-7.1659,-7.166,0,0,0,0,0,0,0,-7.1625,-7.1634,-7.1726,-7.1675,-7.167,-7.1642,-7.1643,-7.1704,-7.1671,-7.164,-7.1632,-7.1636,-7.1646,-7.1661,-7.1665,-7.1763,-7.1654,-7.1658,-7.1661,-7.1663,-7.1963,-7.1967,0,0,0,0,0,0,-7.163,-7.1632,-7.1725,-7.1726,-7.1635,-7.1648,-7.1649,-7.1677,-7.167,-7.1664,-7.1639,-7.163,-7.1655,-7.1659,-7.1665,-7.181,-7.1659,-7.1663,-7.1666,-7.1958,-7.1964,-7.1969,0,0,0,0,0,0,-7.1627,-7.1639,-7.1724,-7.1677,-7.1686,-7.1655,-7.1687,-7.1679,-7.1694,-7.167,-7.1663,-7.1661,-7.1651,-7.1658,-7.1739,-7.1808,-7.1665,-7.167,-7.1952,-7.196,-7.1967,-7.21,0,0,0,0,0,0,-7.1624,-7.1639,-7.1686,-7.1679,-7.1689,-7.1799,-7.1692,-7.1683,-7.1703,-7.1692,-7.1688,-7.1683,-7.1648,-7.1732,-7.1744,-7.1813,-7.1674,-7.1945,-7.1955,-7.1964,-7.2089,-7.2111,-7.2129,0,0,0,0,0,-7.162,-7.1721,-7.1689,-7.1701,-7.1747,-7.1804,-7.1809,-7.1768,-7.1709,-7.1756,-7.1741,-7.1683,-7.1799,-7.1741,-7.1753,-7.1825,-7.1941,-7.1952,-7.1963,-7.208,-7.2106,-7.2129,0,0,0,0,0,0,-7.1735,-7.1719,-7.1683,-7.1786,-7.1797,-7.1785,-7.1842,-7.1797,-7.1824,-7.1812,-7.1758,-7.1759,-7.1849,-7.1844,-7.178,-7.1944,-7.186,-7.1874,-7.1944,-7.1969,-7.1989,-7.1988,-7.1678,0,0,0,0,0,-7.1773,-7.1821,-7.1804,-7.1896,-7.1904,-7.1873,-7.1896,-7.1863,-7.1872,-7.1876,-7.1866,-7.1877,-7.1915,-7.1942,-7.1976,-7.2088,-7.2086,-7.2143,-7.2163,-7.218,-7.2193,-7.2253,-7.2279,-7.2007,-7.2006,-7.2006,0,0,-7.185,-7.1848,-7.1881,-7.1919,-7.1924,-7.1975,-7.1877,-7.1935,-7.1972,-7.1884,-7.1961,-7.1955,-7.1962,-7.206,-7.2102,-7.2059,-7.2268,-7.2194,-7.2208,-7.2212,-7.2268,-7.2294,-7.2317,-7.2014,-7.2013,-7.2012,0,0,-7.2018,-7.2021,-7.2099,-7.2107,-7.2116,-7.2095,-7.2114,-7.211,-7.2103,-7.2179,-7.2115,-7.2158,-7.2225,-7.2234,-7.2247,-7.2421,-7.237,-7.2434,-7.254,-7.2599,-7.2621,-7.264,-7.2703,-7.2726,-7.2447,-7.2447,-7.2447,0,-7.2113,-7.2188,-7.2144,-7.2207,-7.2226,-7.2151,-7.223,-7.2239,-7.2259,-7.2273,-7.2225,-7.231,-7.2309,-7.2409,-7.2452,-7.2464,-7.2484,-7.2434,-7.2622,-7.264,-7.2657,-7.2716,-7.274,-7.2455,-7.2454,-7.2453,-7.2452,0,-7.2305,-7.2358,-7.242,-7.2444,-7.2469,-7.254,-7.2506,-7.2537,-7.2503,-7.2487,-7.2566,-7.2564,-7.2597,-7.2618,-7.2584,-7.2713,-7.2686,-7.2631,-7.2545,-7.2691,-7.2747,-7.2769,-7.2466,-7.2463,-7.2461,-7.2459,0,0,-7.2544,-7.2545,-7.2568,-7.2579,-7.2585,-7.2625,-7.2692,-7.2727,-7.2755,-7.2771,-7.2827,-7.2887,-7.2836,-7.2852,-7.2818,-7.287,-7.301,-7.2808,-7.2808,-7.2847,-7.3154,-7.3196,-7.3223,-7.2976,-7.298,-7.2984,-7.3153,0,-7.2709,-7.2825,-7.2789,-7.2906,-7.2955,-7.2886,-7.2945,-7.2955,-7.2942,-7.2981,-7.2966,-7.301,-7.2939,-7.2949,-7.2997,-7.2983,-7.3071,-7.297,-7.3027,-7.303,-7.3028,-7.3252,-7.3296,-7.3457,-7.3174,-7.3178,-7.3181,0,-7.2916,-7.2944,-7.3068,-7.3068,-7.3087,-7.3141,-7.317,-7.3208,-7.3219,-7.3206,-7.3225,-7.3181,-7.3246,-7.3161,-7.325,-7.3183,-7.3203,-7.32,-7.3205,-7.3209,-7.3115,-7.3263,-7.3506,-7.3531,-7.3214,-7.3211,-7.3209,0,-7.308,-7.3148,-7.3231,-7.3242,-7.3244,-7.3284,-7.3286,-7.3292,-7.3316,-7.3341,-7.3356,-7.3388,-7.3406,-7.3432,-7.3398,-7.3338,-7.3493,-7.3404,-7.3484,-7.3486,-7.352,-7.3518,-7.3772,-7.3533,-7.3533,-7.3532,-7.3532,0,-7.3269,-7.3347,-7.3305,-7.3357,-7.3442,-7.3399,-7.3485,-7.3479,-7.3486,-7.3534,-7.3475,-7.3522,-7.3474,-7.3516,-7.3489,-7.3569,-7.3577,-7.3568,-7.356,-7.3574,-7.3575,-7.3587,-7.3576,-7.3538,-7.3537,-7.3536,-7.3535,0,-7.3466,-7.3441,-7.3528,-7.3524,-7.3525,-7.3588,-7.3584,-7.3631,-7.3615,-7.3677,-7.3689,-7.3663,-7.371,-7.3679,-7.3725,-7.3707,-7.3811,-7.3787,-7.3809,-7.3803,-7.3885,-7.3878,-7.4155,-7.419,-7.3928,-7.3931,-7.3933,0,-7.3588,-7.3648,-7.3651,-7.368,-7.3688,-7.3735,-7.376,-7.372,-7.3748,-7.3765,-7.381,-7.3852,-7.3884,-7.3961,-7.3946,-7.3981,-7.3958,-7.4053,-7.3963,-7.3976,-7.3961,-7.3959,-7.3965,-7.4072,-7.4075,-7.4077,-7.4079,0,-7.3809,-7.3794,-7.3833,-7.3869,-7.3901,-7.3926,-7.3946,-7.3973,-7.3933,-7.3968,-7.4016,-7.4041,-7.4089,-7.4132,-7.4162,-7.4162,-7.4115,-7.4108,-7.4128,-7.4143,-7.4154,-7.4151,-7.3859,-7.4102,-7.4099,-7.4098,-7.4096,-7.4096,-7.3973,-7.4023,-7.4034,-7.408,-7.4092,-7.4113,-7.4158,-7.4148,-7.4188,-7.4226,-7.4199,-7.4257,-7.4266,-7.4302,-7.431,-7.4354,-7.4315,-7.4344,-7.4352,-7.436,-7.4373,-7.4147,-7.4358,-7.4358,-7.4357,-7.4357,-7.4356,0,-7.4191,-7.4195,-7.4238,-7.427,-7.4306,-7.426,-7.4281,-7.4314,-7.4366,-7.438,-7.4413,-7.4469,-7.4511,-7.45,-7.4537,-7.4574,-7.4554,-7.4586,-7.4583,-7.4584,-7.4404,-7.4383,-7.4602,-7.4602,-7.4602,-7.4602,-7.4602,-7.4602,-7.4309,-7.4392,-7.4379,-7.4468,-7.4471,-7.4529,-7.4545,-7.4564,-7.4575,-7.4641,-7.4676,-7.467,-7.4674,-7.4711,-7.4747,-7.4743,-7.476,-7.4801,-7.4788,-7.4621,-7.4596,-7.4573,-7.4553,-7.4804,-7.4805,-7.4964,-7.4966,-7.4967]}]]